Content
SEND FEEDBACK

Daily
Averages
Monthly
Summary
Spain

MÁLAGA, SPAIN


Home > Europe > Spain
Elevation: 23 feet     Latitude: 36 40N     Longitude: 004 29W

WEATHER
 
SELECT A DAY
Number of Records: 330,402;   Date Range: 7/1/96 - 12/27/14
 
SHARE

PRINT THIS DATA

[ ← Previous Day ]
WEATHER ALMANAC - JANUARY 6, 2013
[ Next Day → ]
[ °C ]   °F
Weather ElementAverageHighLow
Temperature59.9 °F66.2 °F (2:00 pm)55.4 °F (6:00 am)
Dewpoint41.8 °F46 °F (7:00 pm)35.6 °F (1:30 pm)
Humidity51 %59 % (5:30 am)32 % (1:00 pm)
Barometer30.35 in30.42 in (12:30 am)30.30 in (3:00 pm)
Wind Speed19.4 mph23 mph (4:00 am)
Wind Gust32.2 mph (7:30 am)
Weather ElementAverage
Visibility20.5 mi
Wind DirectionWNW (281.5 °)

Weather ElementTotal
Precipitation---
Heating Degree Days4.2 (Base 65)
Growing Degree Days10.8 (Base 50)
Averaged from 48 records on January 6, 2013
WEATHER CONDITIONS BREAKOUT
WIND DIRECTION BREAKOUT
WEATHER BY HOUR - JANUARY 6, 2013
[ °C ]   °F
Local TimeTemperatureDewpointHumidityBarometerVisibilityWind DirectionWind SpeedGust SpeedPrecipitationEventsConditions
12:30 AM57.2 °F41.0 °F55 %30.42 inWest (280°)19.6 mphClear
1:00 AM58.0 °F41.0 °F43 %30.41 in19.0 miWest (280°)19.6 mph
1:00 AM57.2 °F41.0 °F55 %30.39 inWest (280°)19.6 mphClear
1:30 AM57.2 °F41.0 °F55 %30.39 inWest (280°)19.6 mphClear
2:30 AM57.2 °F41.0 °F55 %30.39 inWest (280°)21.9 mphClear
3:00 AM57.2 °F41.0 °F55 %30.39 inWest (280°)21.9 mphClear
3:30 AM57.2 °F41.0 °F55 %30.39 inWest (280°)21.9 mphClear
4:00 AM57.2 °F41.0 °F55 %30.39 inWest (280°)23.0 mphClear
4:30 AM57.2 °F41.0 °F55 %30.39 inWest (280°)21.9 mphClear
5:30 AM57.2 °F42.8 °F59 %30.36 inWest (280°)20.7 mphClear
6:00 AM55.4 °F41.0 °F58 %30.36 inWest (280°)23.0 mphClear
6:30 AM55.4 °F41.0 °F58 %30.36 inWest (280°)21.9 mphClear
7:00 AM57.2 °F41.0 °F55 %30.36 inWest (280°)20.7 mphClear
7:00 AM57.0 °F40.0 °F41 %30.38 in19.0 miWest (280°)20.7 mph
7:30 AM57.2 °F41.0 °F55 %30.36 inWest (280°)20.7 mph32.2 mphClear
8:00 AM57.2 °F42.8 °F59 %30.39 inWest (280°)20.7 mphClear
8:30 AM57.2 °F42.8 °F59 %30.39 inWNW (290°)20.7 mphClear
9:00 AM57.2 °F42.8 °F59 %30.39 inWest (280°)20.7 mphClear
9:30 AM57.2 °F42.8 °F59 %30.39 inWest (280°)20.7 mph32.2 mphClear
10:00 AM57.2 °F42.8 °F59 %30.39 inWest (280°)21.9 mphClear
11:00 AM60.8 °F42.8 °F52 %30.39 inWest (280°)19.6 mphClear
11:30 AM60.8 °F42.8 °F52 %30.39 inWest (280°)20.7 mph32.2 mphClear
12:00 PM62.6 °F39.2 °F42 %30.39 inWest (280°)20.7 mphClear
12:30 PM64.4 °F41.0 °F42 %30.36 inWest (280°)18.4 mphClear
1:00 PM64.4 °F41.0 °F42 %30.36 inWest (280°)20.7 mphClear
1:00 PM66.0 °F43.0 °F32 %30.39 in25.0 miWest (280°)20.7 mphClear
1:30 PM64.4 °F35.6 °F34 %30.36 inWest (280°)20.7 mph32.2 mphClear
2:00 PM66.2 °F39.2 °F37 %30.33 inWNW (290°)18.4 mphClear
2:30 PM66.2 °F41.0 °F40 %30.33 inWNW (290°)17.3 mphClear
3:00 PM66.2 °F39.2 °F37 %30.30 inWNW (290°)20.7 mphClear
3:30 PM66.2 °F39.2 °F37 %30.30 inWNW (290°)18.4 mphClear
4:00 PM66.2 °F44.6 °F46 %30.30 inWest (280°)18.4 mphClear
4:30 PM64.4 °F42.8 °F45 %30.30 inWest (280°)18.4 mphClear
5:00 PM64.4 °F44.6 °F49 %30.30 inWNW (290°)15.0 mphClear
5:30 PM62.6 °F44.6 °F52 %30.30 inWest (280°)11.5 mphClear
6:00 PM62.6 °F44.6 °F52 %30.30 inWNW (290°)17.3 mphClear
6:30 PM60.8 °F42.8 °F52 %30.30 inWest (280°)17.3 mphClear
7:00 PM61.0 °F46.0 °F48 %30.32 in19.0 miWest (280°)17.3 mphClear
7:00 PM60.8 °F42.8 °F52 %30.30 inWest (280°)17.3 mphClear
7:30 PM59.0 °F42.8 °F55 %30.33 inWest (280°)16.1 mphClear
8:00 PM59.0 °F42.8 °F55 %30.33 inWest (280°)18.4 mphClear
8:30 PM59.0 °F44.6 °F59 %30.33 inWest (280°)17.3 mphClear
9:00 PM57.2 °F42.8 °F59 %30.33 inWest (280°)17.3 mphClear
9:30 PM59.0 °F42.8 °F55 %30.33 inWest (280°)17.3 mphClear
10:00 PM57.2 °F41.0 °F55 %30.33 inWest (280°)18.4 mphClear
10:30 PM57.2 °F41.0 °F55 %30.33 inWest (280°)17.3 mphClear
11:00 PM57.2 °F41.0 °F55 %30.33 inWest (280°)18.4 mphClear
11:30 PM57.2 °F39.2 °F51 %30.33 inWest (280°)19.6 mphClear
Hourly data recorded from LEMG, located miles away from Málaga, Spain







STORIES FROM OUR PARTNERS